�������l�o���
Date,Time,MP-1(��Sv/h),MP-2(��Sv/h),MP-3(��Sv/h),MP-4(��Sv/h),MP-5(��Sv/h),MP-6(��Sv/h),MP-7(��Sv/h),����,����(m/s),���J
2018/09/27,00:00,0.301,0.186,0.301,0.291,0.278,0.151,0.092,�k�k��,6.4,��
2018/09/27,00:10,0.305,0.188,0.302,0.292,0.281,0.150,0.092,�k�k��,4.7,��
2018/09/27,00:20,0.303,0.187,0.301,0.292,0.280,0.152,0.092,�k��,6.9,�L
2018/09/27,00:30,0.306,0.187,0.302,0.291,0.280,0.150,0.092,�k��,6.8,�L
2018/09/27,00:40,0.302,0.187,0.301,0.292,0.281,0.151,0.093,�k��,10.0,�L
2018/09/27,00:50,0.305,0.189,0.303,0.291,0.278,0.150,0.092,�k��,8.8,�L
2018/09/27,01:00,0.304,0.188,0.301,0.292,0.282,0.150,0.093,�k�k��,9.3,�L
2018/09/27,01:10,0.305,0.190,0.304,0.292,0.279,0.152,0.094,�k��,9.0,�L
2018/09/27,01:20,0.305,0.190,0.303,0.292,0.280,0.152,0.095,�k��,9.5,�L
2018/09/27,01:30,0.305,0.190,0.304,0.291,0.280,0.152,0.094,�k��,10.4,�L
2018/09/27,01:40,0.305,0.190,0.303,0.291,0.280,0.153,0.094,�k��,10.9,�L
2018/09/27,01:50,0.307,0.190,0.303,0.292,0.282,0.153,0.095,�k��,9.6,�L
2018/09/27,02:00,0.303,0.190,0.303,0.291,0.279,0.153,0.095,�k�k��,9.5,�L
2018/09/27,02:10,0.307,0.190,0.301,0.294,0.280,0.152,0.095,�k�k��,9.0,�L
2018/09/27,02:20,0.304,0.191,0.302,0.291,0.279,0.152,0.095,�k�k��,9.0,�L
2018/09/27,02:30,0.307,0.190,0.302,0.294,0.282,0.152,0.095,�k��,8.3,�L
2018/09/27,02:40,0.305,0.191,0.303,0.291,0.279,0.152,0.095,�k�k��,9.8,�L
2018/09/27,02:50,0.306,0.189,0.303,0.292,0.282,0.151,0.094,�k�k��,10.0,�L
2018/09/27,03:00,0.305,0.190,0.301,0.291,0.280,0.151,0.095,�k�k��,8.6,�L
2018/09/27,03:10,0.306,0.190,0.304,0.291,0.280,0.151,0.094,�k�k��,7.5,�L
2018/09/27,03:20,0.305,0.189,0.300,0.291,0.279,0.151,0.093,�k�k��,11.5,�L
2018/09/27,03:30,0.306,0.189,0.301,0.290,0.279,0.150,0.094,�k�k��,11.2,�L
2018/09/27,03:40,0.304,0.189,0.302,0.291,0.279,0.150,0.094,�k�k��,10.1,��
2018/09/27,03:50,0.303,0.188,0.303,0.290,0.278,0.151,0.093,�k,8.2,��
2018/09/27,04:00,0.305,0.189,0.301,0.290,0.279,0.150,0.092,�k,6.6,��
2018/09/27,04:10,0.303,0.187,0.300,0.288,0.277,0.150,0.093,�k,6.2,�L
2018/09/27,04:20,0.305,0.188,0.302,0.290,0.279,0.149,0.093,�k,7.3,�L
2018/09/27,04:30,0.304,0.187,0.300,0.289,0.277,0.151,0.093,�k,8.1,�L
2018/09/27,04:40,0.305,0.189,0.301,0.288,0.278,0.150,0.093,�k,8.7,�L
2018/09/27,04:50,0.302,0.188,0.299,0.290,0.278,0.150,0.093,�k,8.6,�L
2018/09/27,05:00,0.304,0.188,0.298,0.288,0.276,0.150,0.094,-,CALM,�L
2018/09/27,05:10,0.303,0.189,0.299,0.289,0.278,0.150,0.094,�k�k��,8.4,�L
2018/09/27,05:20,0.302,0.186,0.297,0.287,0.277,0.150,0.094,-,CALM,�L
2018/09/27,05:30,0.303,0.188,0.300,0.287,0.278,0.149,0.094,�k,10.6,�L
2018/09/27,05:40,0.300,0.185,0.296,0.287,0.276,0.150,0.093,�k,10.1,�L
2018/09/27,05:50,0.302,0.186,0.298,0.285,0.278,0.149,0.093,�k,9.0,�L
2018/09/27,06:00,0.300,0.187,0.298,0.287,0.277,0.149,0.094,�k�k��,7.6,�L
2018/09/27,06:10,0.300,0.186,0.297,0.286,0.278,0.149,0.093,�k�k��,7.4,�L
2018/09/27,06:20,0.302,0.188,0.300,0.288,0.280,0.150,0.095,-,CALM,�L
2018/09/27,06:30,0.300,0.189,0.298,0.288,0.279,0.152,0.095,�k�k��,10.1,�L
2018/09/27,06:40,0.302,0.188,0.298,0.287,0.279,0.151,0.095,�k�k��,10.1,�L
2018/09/27,06:50,0.300,0.189,0.299,0.287,0.278,0.151,0.096,-,CALM,�L
2018/09/27,07:00,0.299,0.187,0.298,0.284,0.278,0.150,0.095,-,CALM,�L
2018/09/27,07:10,0.300,0.188,0.297,0.287,0.279,0.150,0.095,-,CALM,�L
2018/09/27,07:20,0.298,0.187,0.297,0.285,0.278,0.150,0.096,�k�k��,7.8,�L
2018/09/27,07:30,0.300,0.187,0.297,0.286,0.279,0.150,0.095,�k�k��,8.1,�L
2018/09/27,07:40,0.298,0.187,0.297,0.284,0.278,0.149,0.095,�k�k��,9.2,�L
2018/09/27,07:50,0.298,0.186,0.295,0.286,0.279,0.149,0.094,�k�k��,9.3,�L
2018/09/27,08:00,0.298,0.186,0.298,0.286,0.277,0.149,0.093,�k�k��,9.5,�L
2018/09/27,08:10,0.298,0.185,0.296,0.284,0.278,0.148,0.094,�k�k��,9.6,�L
2018/09/27,08:20,0.298,0.185,0.295,0.287,0.277,0.149,0.092,�k�k��,10.1,��
2018/09/27,08:30,0.296,0.186,0.297,0.283,0.279,0.147,0.093,�k�k��,9.2,��
2018/09/27,08:40,0.297,0.185,0.296,0.286,0.277,0.148,0.092,�k�k��,10.6,��
2018/09/27,08:50,0.296,0.185,0.296,0.285,0.277,0.148,0.092,�k�k��,10.4,�L
2018/09/27,09:00,0.298,0.185,0.295,0.283,0.279,0.147,0.092,�k�k��,7.6,�L
2018/09/27,09:10,0.297,0.186,0.297,0.287,0.277,0.148,0.094,�k�k��,10.0,�L
2018/09/27,09:20,0.298,0.189,0.297,0.285,0.278,0.150,0.095,-,CALM,�L
2018/09/27,09:30,0.300,0.188,0.297,0.287,0.278,0.151,0.095,-,CALM,�L
2018/09/27,09:40,0.299,0.189,0.301,0.287,0.281,0.150,0.096,�k,9.2,�L
2018/09/27,09:50,0.301,0.188,0.297,0.287,0.279,0.150,0.095,�k,8.5,�L
2018/09/27,10:00,0.298,0.188,0.299,0.287,0.279,0.151,0.096,-,CALM,�L
2018/09/27,10:10,0.300,0.188,0.297,0.286,0.278,0.151,0.097,�k,9.0,�L
2018/09/27,10:20,0.299,0.188,0.298,0.286,0.279,0.151,0.095,�k,8.1,�L
2018/09/27,10:30,0.298,0.188,0.298,0.286,0.278,0.149,0.095,�k�k��,8.1,�L
2018/09/27,10:40,0.299,0.187,0.297,0.287,0.278,0.149,0.094,�k,8.1,�L
2018/09/27,10:50,0.297,0.186,0.297,0.285,0.278,0.149,0.095,�k,8.1,�L
2018/09/27,11:00,0.298,0.187,0.296,0.287,0.277,0.148,0.095,�k�k��,8.5,�L
2018/09/27,11:10,0.297,0.187,0.298,0.284,0.278,0.150,0.095,�k�k��,7.8,�L
2018/09/27,11:20,0.298,0.186,0.294,0.286,0.277,0.149,0.095,�k,8.3,�L
2018/09/27,11:30,0.297,0.187,0.297,0.284,0.279,0.149,0.095,�k,7.8,�L
2018/09/27,11:40,0.297,0.187,0.296,0.286,0.276,0.151,0.096,�k�k��,8.2,�L
2018/09/27,11:50,0.298,0.187,0.295,0.285,0.279,0.149,0.095,�k�k��,7.2,�L
2018/09/27,12:00,0.297,0.188,0.295,0.285,0.277,0.149,0.096,�k�k��,7.8,�L
2018/09/27,12:10,0.297,0.187,0.295,0.286,0.279,0.150,0.096,�k�k��,7.7,�L
2018/09/27,12:20,0.297,0.188,0.296,0.285,0.278,0.149,0.095,�k�k��,7.0,�L
2018/09/27,12:30,0.298,0.187,0.295,0.286,0.278,0.150,0.095,�k,7.3,�L
2018/09/27,12:40,0.296,0.187,0.297,0.286,0.278,0.150,0.096,�k�k��,7.4,�L
2018/09/27,12:50,0.298,0.187,0.295,0.286,0.279,0.150,0.096,�k�k��,6.8,�L
2018/09/27,13:00,0.296,0.186,0.298,0.283,0.279,0.150,0.096,�k�k��,6.8,�L
2018/09/27,13:10,0.298,0.188,0.295,0.286,0.279,0.150,0.096,�k�k��,7.3,�L
2018/09/27,13:20,0.296,0.187,0.294,0.284,0.279,0.150,0.096,�k�k��,6.4,�L
2018/09/27,13:30,0.297,0.187,0.294,0.285,0.278,0.149,0.096,�k,6.3,�L
2018/09/27,13:40,0.294,0.186,0.294,0.283,0.278,0.150,0.096,�k�k��,6.0,�L
2018/09/27,13:50,0.297,0.186,0.296,0.286,0.277,0.149,0.095,�k�k��,5.6,�L
2018/09/27,14:00,0.297,0.187,0.293,0.283,0.277,0.150,0.094,�k�k��,6.6,�L
2018/09/27,14:10,0.294,0.185,0.296,0.284,0.277,0.148,0.095,�k�k��,7.6,�L
2018/09/27,14:20,0.295,0.186,0.294,0.285,0.277,0.148,0.094,�k,7.9,�L
2018/09/27,14:30,0.294,0.185,0.295,0.285,0.277,0.148,0.094,�k�k��,7.5,�L
2018/09/27,14:40,0.296,0.186,0.295,0.285,0.278,0.149,0.094,�k�k��,8.2,�L
2018/09/27,14:50,0.295,0.185,0.295,0.284,0.277,0.148,0.093,�k�k��,7.7,�L
2018/09/27,15:00,0.296,0.187,0.294,0.285,0.280,0.148,0.093,�k�k��,8.2,�L
2018/09/27,15:10,0.294,0.186,0.295,0.284,0.276,0.149,0.095,�k�k��,8.2,�L
2018/09/27,15:20,0.297,0.187,0.297,0.285,0.279,0.147,0.093,�k�k��,7.7,�L
2018/09/27,15:30,0.296,0.187,0.293,0.285,0.277,0.148,0.093,�k�k��,7.3,�L
2018/09/27,15:40,0.298,0.186,0.296,0.284,0.278,0.149,0.094,�k�k��,6.5,�L
2018/09/27,15:50,0.295,0.187,0.296,0.284,0.277,0.148,0.095,�k�k��,6.3,�L
2018/09/27,16:00,0.295,0.187,0.296,0.286,0.280,0.149,0.094,�k�k��,7.0,��
2018/09/27,16:10,0.296,0.187,0.295,0.285,0.276,0.148,0.094,�k,6.3,��
2018/09/27,16:20,0.296,0.185,0.296,0.285,0.277,0.148,0.093,-,CALM,��
2018/09/27,16:30,0.295,0.186,0.293,0.284,0.277,0.147,0.093,�k�k��,7.3,��
2018/09/27,16:40,0.295,0.184,0.295,0.286,0.279,0.146,0.092,�k,7.5,��
2018/09/27,16:50,0.296,0.185,0.293,0.283,0.275,0.147,0.093,�k,8.4,��
2018/09/27,17:00,0.295,0.183,0.297,0.286,0.278,0.146,0.092,�k,8.1,��
2018/09/27,17:10,0.295,0.184,0.294,0.284,0.274,0.147,0.091,�k�k��,8.8,��
2018/09/27,17:20,0.292,0.183,0.295,0.285,0.277,0.147,0.091,�k�k��,7.6,��
2018/09/27,17:30,0.294,0.184,0.295,0.284,0.275,0.145,0.091,�k�k��,7.4,��
2018/09/27,17:40,0.294,0.183,0.294,0.285,0.278,0.145,0.091,�k,6.7,��
2018/09/27,17:50,0.295,0.183,0.295,0.283,0.276,0.146,0.091,�k�k��,6.2,��
2018/09/27,18:00,0.294,0.184,0.293,0.286,0.277,0.146,0.091,�k�k��,6.6,��
2018/09/27,18:10,0.295,0.184,0.296,0.285,0.274,0.146,0.090,�k�k��,6.6,��
2018/09/27,18:20,0.294,0.183,0.295,0.285,0.276,0.146,0.091,�k�k��,6.9,��
2018/09/27,18:30,0.296,0.183,0.296,0.283,0.275,0.146,0.090,�k�k��,6.8,��
2018/09/27,18:40,0.293,0.184,0.293,0.285,0.276,0.146,0.091,�k,5.9,��
2018/09/27,18:50,0.294,0.184,0.295,0.285,0.275,0.146,0.090,�k�k��,5.8,��
2018/09/27,19:00,0.293,0.183,0.295,0.284,0.275,0.146,0.090,�k�k��,5.3,��
2018/09/27,19:10,0.296,0.183,0.296,0.285,0.276,0.146,0.092,�k�k��,5.4,��
2018/09/27,19:20,0.295,0.183,0.294,0.284,0.275,0.147,0.091,�k�k��,5.7,��
2018/09/27,19:30,0.295,0.183,0.295,0.285,0.277,0.145,0.091,�k�k��,5.4,��
2018/09/27,19:40,0.294,0.183,0.296,0.283,0.275,0.146,0.091,�k,6.4,��
2018/09/27,19:50,0.295,0.184,0.295,0.287,0.277,0.144,0.090,�k,7.5,��
2018/09/27,20:00,0.296,0.183,0.297,0.284,0.274,0.146,0.091,�k,7.8,��
2018/09/27,20:10,0.295,0.182,0.295,0.286,0.277,0.145,0.091,�k,7.6,��
2018/09/27,20:20,0.296,0.183,0.295,0.284,0.275,0.146,0.091,�k,5.8,��
2018/09/27,20:30,0.295,0.184,0.296,0.286,0.276,0.146,0.091,�k,6.2,��
2018/09/27,20:40,0.296,0.184,0.295,0.284,0.275,0.146,0.091,�k,9.0,��
2018/09/27,20:50,0.293,0.183,0.295,0.284,0.276,0.146,0.091,�k,9.5,��
2018/09/27,21:00,0.295,0.184,0.294,0.287,0.276,0.145,0.091,�k,8.9,��
2018/09/27,21:10,0.295,0.184,0.296,0.286,0.275,0.147,0.091,�k,7.4,��
2018/09/27,21:20,0.297,0.183,0.295,0.286,0.277,0.146,0.091,�k,8.5,��
2018/09/27,21:30,0.296,0.185,0.295,0.285,0.275,0.146,0.090,�k,8.7,��
2018/09/27,21:40,0.295,0.183,0.296,0.285,0.278,0.147,0.091,�k,9.2,��
2018/09/27,21:50,0.297,0.184,0.295,0.285,0.276,0.147,0.090,�k,9.5,��
2018/09/27,22:00,0.295,0.185,0.297,0.286,0.275,0.145,0.092,�k�k��,7.8,��
2018/09/27,22:10,0.298,0.183,0.295,0.286,0.277,0.145,0.091,�k,7.6,��
2018/09/27,22:20,0.294,0.185,0.297,0.286,0.275,0.146,0.092,�k,7.2,��
2018/09/27,22:30,0.297,0.184,0.295,0.287,0.277,0.146,0.092,�k,7.6,��
2018/09/27,22:40,0.295,0.183,0.297,0.285,0.276,0.147,0.091,�k,8.4,��
2018/09/27,22:50,0.296,0.184,0.296,0.285,0.278,0.146,0.091,�k,8.1,��
2018/09/27,23:00,0.296,0.184,0.296,0.286,0.276,0.147,0.091,�k�k��,7.5,��
2018/09/27,23:10,0.295,0.184,0.297,0.287,0.277,0.147,0.091,�k,7.6,��
2018/09/27,23:20,0.298,0.184,0.296,0.287,0.278,0.147,0.091,�k,8.9,��
2018/09/27,23:30,0.295,0.183,0.297,0.286,0.276,0.146,0.091,�k,8.4,��
2018/09/27,23:40,0.298,0.185,0.296,0.287,0.278,0.147,0.091,�k�k��,7.4,��
2018/09/27,23:50,0.296,0.183,0.297,0.285,0.275,0.147,0.092,�k�k��,7.3,��
